Weather in Klimenki

Russia / Belgorod Oblast     50°03′13″N   38°22′49″E
temp.,
°C
wind,
m/s
gust,
m/s
humid.,
%
clouds,
%
prec.,
mm/h
press.,
hPa
HPBL,
m
22 january, sat
sat2200:00−8ssw5139421 0.0 1009243
03:00−10s4109783 0.0 1009162
06:00−8ssw51195100 0.1 1009281
09:00−8ssw5109591 0.3 1011294
12:00−6ssw51095100 0.1 1012377
15:00−5ssw499497 0.1 1012451
18:00−4sw5888100 0.1 1014542
21:00−5s369496 0.1 1015201
23 january, sun
sun2300:00−7sse349493 0.0 101776
03:00−8sse3494100 0.0 101853
06:00−13se2298100 0.0 101914
09:00−11ne2297100 0.0 102116
12:00−6ne3694100 0.0 1022189
15:00−5ne4995100 0.0 1022329
18:00−7nne61394100 0.0 1023324
21:00−6nne71593100 0.0 1023445
24 january, mon
mon2400:00−5nne81594100 0.8 1023493
03:00−4ne81594100 1.2 1023498
06:00−3ene71392100 0.1 1023606
09:00−5ene71392100 0.6 1025482
12:00−6ene7129490 0.3 1026427
15:00−6ene61194100 0.4 1026425
18:00−7ene51094100 0.1 1026321
21:00−8ene51095100 0.3 1026293
25 january, tue
tue2500:00−8ene489572 0.1 1026239
03:00−10ene499697 0.2 1025181
06:00−8ene3796100 0.2 1025192
09:00−8e389699 0.3 1025185
12:00−4ese489682 0.1 1024262
15:000se4897100 0.2 1023564
18:00−3ssw379491 0.2 1023155
21:00−2s4786100 0.2 1023283
26 january, wed
wed2600:00−7s229881 0.0 102321
03:00−11s2310096 0.1 102342
06:00−15sse2210098 0.0 102311
09:00−8se24100100 0.0 102299
12:00−5sse3696100 0.1 1022256
15:00−3sse3592100 0.1 1021458
18:00−4ese3596100 0.1 1021242
21:00−4ese3696100 0.1 1022285